Location: Boleita
(10.4833°N, 66.8167°W)
Time: 01:24:45
(UTC+00:00)

Cosmos 2100 Rocket - Pass Details

Date: 08 November 2025
Orbit: 954 x 1000 km, 82.9° (Epoch: 08 December)

Event Time Altitude Azimuth Distance (km) Brightness Sun altitude
Rises 09:48:55 0° 344° (NNW) 3,626 6.7 -8.2°
Reaches altitude 10° 09:51:31 10° 338° (NNW) 2,685 6.0 -7.6°
Maximum altitude 09:57:16 43° 268° (W) 1,327 4.3 -6.2°
Drops below altitude 10° 10:03:05 10° 198° (SSW) 2,712 6.3 -4.9°
Sets 10:05:44 0° 192° (SSW) 3,667 7.1 -4.2°
